Location: Hartford
(41.7640°N, 72.6860°W)
Time: 23:24:03
(UTC-04:00)

Amateur Radio Satellites - All Passes

Search period start: 28 March 2017 22:54
Search period end: 29 March 2017 22:54
Location: Hartford, 41.7640°N, 72.6860°W

Satellite Date Start Highest point End Downlink Frequencies (MHz)
Time Altitude Azimuth
ESTCUBE 1 28 Mar 22:55:54 23:00:01 37° 70° (ENE) 23:04:09 437.505/2401.250
LO-87 28 Mar 23:10:25 23:14:00 74° 258° (WSW) 23:17:39 145.935 - 145.965
DX 1 28 Mar 23:29:07 23:30:33 11° 61° (ENE) 23:32:00 434.975-435.025
AIST 2D 28 Mar 23:42:50 23:45:55 28° 96° (E) 23:48:58 435.315
TIGRISAT 28 Mar 23:52:19 23:56:10 30° 291° (WNW) 23:59:56 435.000
50 SAT 28 Mar 23:54:03 23:56:54 25° 70° (ENE) 23:59:47 437.505
BEESAT 3 28 Mar 23:55:05 23:56:57 13° 321° (NW) 23:58:50 437.485
NANOSAT C BR1 28 Mar 23:55:28 23:58:47 22° 94° (E) 00:02:04 145.865
VELOX 1 28 Mar 23:57:09 00:01:25 52° 73° (ENE) 00:05:45 145.980
EO-79 29 Mar 00:01:25 00:05:06 28° 96° (E) 00:08:43 145.935-145.965
UKube-1 29 Mar 00:02:18 00:05:14 18° 65° (ENE) 00:08:12 .
UNISAT 6 29 Mar 00:03:38 00:07:03 22° 294° (WNW) 00:10:23 437.425
PRISM 29 Mar 00:05:55 00:07:08 11° 298° (WNW) 00:08:19 437.425
SO-50 29 Mar 00:11:38 00:15:30 29° 246° (WSW) 00:19:22 436.795
Tancredo 1 29 Mar 00:13:20 00:15:24 16° 10° (N) 00:17:29 437.200
BEESAT 2 29 Mar 00:15:21 00:18:03 17° 317° (NW) 00:20:47 435.950
FO-29 29 Mar 00:19:23 00:24:53 41° 293° (WNW) 00:29:54 435.910
SPROUT 29 Mar 00:22:02 00:26:20 85° 78° (ENE) 00:30:41 437.525
ISS 29 Mar 00:24:51 00:27:07 17° 12° (NNE) 00:29:24 437.550
POLYITAN 1 29 Mar 00:29:59 00:34:11 60° 101° (E) 00:38:20 437.675
ESTCUBE 1 29 Mar 00:33:36 00:36:56 20° 267° (W) 00:40:17 437.505/2401.250
QB50P2 29 Mar 00:34:43 00:38:59 75° 103° (ESE) 00:43:10 145.880/145.840
DUCHIFAT 1 29 Mar 00:42:53 00:47:05 70° 102° (ESE) 00:51:15 145.980
BUGSAT 1 29 Mar 00:49:00 00:52:29 26° 95° (E) 00:55:56 437.445
DX 1 29 Mar 01:01:47 01:06:07 74° 258° (WSW) 01:10:30 434.975-435.025
RS-15 29 Mar 01:02:21 01:03:09 10° 269° (W) 01:03:57 29.354- 29.394
O/OREOS (USA 219) 29 Mar 01:05:43 01:08:03 14° 51° (NE) 01:10:23 437.305
Oscar 19 29 Mar 01:07:04 01:09:50 14° 90° (E) 01:12:34 437.125/150
AIST 2D 29 Mar 01:16:41 01:18:55 16° 292° (WNW) 01:21:08 435.315
ITUPSAT 1 29 Mar 01:25:56 01:27:49 12° 60° (ENE) 01:29:43 437.325
50 SAT 29 Mar 01:27:30 01:29:56 18° 266° (W) 01:32:22 437.505
NANOSAT C BR1 29 Mar 01:30:48 01:34:30 31° 291° (WNW) 01:38:12 145.865
VELOX 1 29 Mar 01:35:45 01:38:11 14° 269° (W) 01:40:38 145.980
UKube-1 29 Mar 01:36:51 01:40:56 42° 261° (W) 01:45:04 .
EO-79 29 Mar 01:37:17 01:40:44 25° 292° (WNW) 01:44:10 145.935-145.965
Gurwin Techsat 1B 29 Mar 01:41:42 01:45:17 18° 92° (E) 01:48:51 435.225
Tancredo 1 29 Mar 01:49:01 01:52:07 45° 30° (NNE) 01:55:13 437.200
ISS 29 Mar 02:00:55 02:04:09 52° 31° (NNE) 02:07:23 437.550
POLYITAN 1 29 Mar 02:07:33 02:09:27 13° 297° (WNW) 02:11:21 437.675
QB50P2 29 Mar 02:13:09 02:14:07 11° 299° (WNW) 02:15:07 145.880/145.840
DUCHIFAT 1 29 Mar 02:20:53 02:22:10 11° 298° (WNW) 02:23:27 145.980
BUGSAT 1 29 Mar 02:24:18 02:27:47 26° 292° (WNW) 02:31:12 437.445
MOZHAYETS 4 29 Mar 02:36:38 02:40:18 24° 67° (ENE) 02:43:58
BEESAT 29 Mar 02:42:09 02:46:53 68° 74° (ENE) 02:51:38 436.000
O/OREOS (USA 219) 29 Mar 02:43:25 02:48:02 75° 249° (WSW) 02:52:36 437.305
Oscar 19 29 Mar 02:44:28 02:49:37 69° 287° (WNW) 02:54:46 437.125/150
AO-7 29 Mar 02:55:53 03:00:47 17° 90° (E) 03:05:41 .
ITAMSAT 1 29 Mar 02:59:39 03:02:37 15° 91° (E) 03:05:35 435.822/435.867
ITUPSAT 1 29 Mar 03:00:10 03:04:57 82° 255° (WSW) 03:09:46 437.325
Gurwin Techsat 1B 29 Mar 03:20:22 03:25:35 58° 288° (WNW) 03:30:47 435.225
Tancredo 1 29 Mar 03:25:34 03:28:02 21° 226° (SW) 03:30:31 437.200
KKS-1 29 Mar 03:35:11 03:38:37 22° 66° (ENE) 03:42:03 437.445
CUBESAT XI-V 29 Mar 03:36:49 03:39:48 17° 64° (ENE) 03:42:49 437.345
ISS 29 Mar 03:37:57 03:40:23 19° 227° (SW) 03:42:48 437.550
STARS 29 Mar 04:03:56 04:07:06 20° 65° (ENE) 04:10:18 437.465
AO-85 29 Mar 04:12:53 04:15:45 19° 45° (NE) 04:18:39 145.980
MOZHAYETS 4 29 Mar 04:13:06 04:17:17 34° 263° (W) 04:21:28
BEESAT 29 Mar 04:22:59 04:25:06 13° 270° (W) 04:27:14 436.000
ITAMSAT 1 29 Mar 04:37:24 04:42:33 66° 287° (WNW) 04:47:39 435.822/435.867
AO-7 29 Mar 04:46:18 04:54:39 85° 109° (ESE) 05:02:58 .
M-CUBED/EXP-1 PRIME 29 Mar 05:05:05 05:07:28 16° 57° (ENE) 05:09:56 437.505
KKS-1 29 Mar 05:10:48 05:14:55 37° 262° (W) 05:19:06 437.445
CUBESAT XI-V 29 Mar 05:12:20 05:16:47 50° 261° (W) 05:21:16 437.345
STARS 29 Mar 05:38:59 05:43:09 41° 261° (W) 05:47:22 437.465
AO-85 29 Mar 05:52:34 05:56:19 43° 242° (WSW) 06:00:11 145.980
XW-2F 29 Mar 06:02:53 06:04:38 13° 91° (E) 06:06:24 145.980 - 146.000
LilacSat-2 29 Mar 06:08:48 06:11:18 17° 93° (E) 06:13:48 437.200
DOVE 4 29 Mar 06:14:27 06:19:17 35° 95° (E) 06:23:59 437.250
NUDT-PHONESAT 29 Mar 06:19:16 06:21:43 17° 93° (E) 06:24:08 437.300
NO-84 29 Mar 06:24:44 06:27:38 89° 321° (NW) 06:30:29 435.350 FM
XW-2D 29 Mar 06:29:23 06:32:42 29° 97° (E) 06:35:59 145.860 - 145.880
KAITUO 1B 29 Mar 06:29:47 06:32:46 23° 95° (E) 06:35:44 145.475/437.950
BEESAT 3 29 Mar 06:31:26 06:35:23 51° 53° (NE) 06:39:17 437.485
XW-2B 29 Mar 06:35:19 06:38:44 33° 97° (E) 06:42:08 145.730 - 145.750
M-CUBED/EXP-1 PRIME 29 Mar 06:37:52 06:41:28 45° 256° (WSW) 06:45:24 437.505
AO-7 29 Mar 06:40:20 06:46:28 24° 308° (NW) 06:52:36 .
YUBILEINY 29 Mar 06:43:06 06:50:34 33° 84° (E) 06:58:01 435.215
XW-2C 29 Mar 06:45:29 06:49:07 45° 99° (E) 06:52:42 145.795 - 145.815
CUTE-I 29 Mar 06:47:20 06:52:26 43° 99° (E) 06:57:28 437.470
BEESAT 2 29 Mar 06:53:33 06:57:19 36° 50° (NE) 07:01:04 435.950
STRAND 1 29 Mar 07:12:23 07:17:30 70° 74° (ENE) 07:22:38 437.568
XW-2A 29 Mar 07:19:39 07:21:24 13° 92° (E) 07:23:08 145.665 - 145.685
XW-2F 29 Mar 07:35:28 07:38:59 41° 287° (WNW) 07:42:30 145.980 - 146.000
HO-68 29 Mar 07:36:36 07:42:49 31° 95° (E) 07:49:01 435.675
LilacSat-2 29 Mar 07:42:18 07:45:40 31° 289° (WNW) 07:49:01 437.200
DOVE 4 29 Mar 07:52:13 07:56:50 31° 293° (WNW) 08:01:21 437.250
NUDT-PHONESAT 29 Mar 07:52:27 07:55:42 30° 289° (WNW) 07:58:56 437.300
SEEDS 29 Mar 07:54:52 07:58:12 22° 94° (E) 08:01:32 437.485
KAITUO 1B 29 Mar 08:03:46 08:06:42 23° 291° (WNW) 08:09:39 145.475/437.950
XW-2D 29 Mar 08:04:02 08:06:41 19° 292° (WNW) 08:09:21 145.860 - 145.880
NO-84 29 Mar 08:04:10 08:05:33 13° 337° (NNW) 08:06:58 435.350 FM
CUTE 1.7 + AOD 2 29 Mar 08:06:48 08:10:54 47° 99° (E) 08:14:58 437.475
XW-2B 29 Mar 08:10:14 08:12:41 17° 293° (WNW) 08:15:07 145.730 - 145.750
BEESAT 3 29 Mar 08:10:18 08:12:34 15° 250° (WSW) 08:14:49 437.485
CUBEBUG 2 29 Mar 08:20:04 08:23:54 29° 95° (E) 08:27:37 437.445
XW-2C 29 Mar 08:21:12 08:22:54 13° 295° (WNW) 08:24:37 145.795 - 145.815
CUTE-I 29 Mar 08:27:53 08:32:13 26° 296° (WNW) 08:36:31 437.470
BEESAT 2 29 Mar 08:31:46 08:34:53 22° 248° (WSW) 08:38:00 435.950
YUBILEINY 29 Mar 08:38:26 08:46:56 54° 284° (WNW) 08:55:27 435.215
AO-73 29 Mar 08:41:49 08:44:23 16° 92° (E) 08:46:55 145.935
FO-29 29 Mar 08:47:15 08:52:07 19° 58° (ENE) 08:56:44 435.910
XW-2A 29 Mar 08:51:15 08:54:16 31° 288° (WNW) 08:57:15 145.665 - 145.685
STRAND 1 29 Mar 08:54:29 08:57:10 14° 270° (W) 08:59:52 437.568
AAUSAT CUBESAT 2 29 Mar 09:05:15 09:09:24 69° 101° (E) 09:13:33 437.432
PCSat 29 Mar 09:05:15 09:10:31 55° 114° (ESE) 09:15:49 145.827
TIGRISAT 29 Mar 09:14:31 09:18:16 24° 67° (ENE) 09:21:59 435.000
UWE-3 29 Mar 09:16:07 09:20:24 77° 102° (ESE) 09:24:34 435.000/436.395/437.385
PRISM 29 Mar 09:17:31 09:21:26 50° 73° (ENE) 09:25:25 437.425
HO-68 29 Mar 09:23:52 09:30:46 52° 293° (WNW) 09:37:38 435.675
UNISAT 6 29 Mar 09:25:07 09:29:17 33° 69° (ENE) 09:33:25 437.425
SEEDS 29 Mar 09:30:14 09:33:54 30° 290° (WNW) 09:37:34 437.485
Oscar 11 29 Mar 09:36:56 09:41:12 57° 100° (E) 09:45:26 .
CUTE 1.7 + AOD 2 29 Mar 09:43:48 09:46:20 16° 295° (WNW) 09:48:52 437.475
ZACube-1 29 Mar 09:50:04 09:54:18 77° 285° (WNW) 09:58:26 437.345
CUBEBUG 2 29 Mar 09:56:51 10:00:23 24° 293° (WNW) 10:03:50 437.445
DELFI C3 29 Mar 09:58:09 10:01:38 28° 96° (E) 10:05:07 145.870
AO-73 29 Mar 10:16:53 10:20:51 41° 288° (WNW) 10:24:44 145.935
AIST 2D 29 Mar 10:19:03 10:20:33 12° 66° (ENE) 10:22:03 435.315
FO-29 29 Mar 10:28:26 10:36:15 85° 75° (ENE) 10:43:31 435.910
AAUSAT CUBESAT 2 29 Mar 10:43:08 10:44:17 11° 298° (WNW) 10:45:27 437.432
YUBILEINY 29 Mar 10:45:41 10:46:06 10° 307° (NW) 10:46:31 435.215
NANOSAT C BR1 29 Mar 10:48:06 10:51:02 18° 65° (ENE) 10:53:58 145.865
PCSat 29 Mar 10:49:49 10:54:14 25° 313° (NW) 10:58:42 145.827
TIGRISAT 29 Mar 10:50:26 10:54:44 36° 263° (W) 10:59:02 435.000
EO-79 29 Mar 10:54:09 10:57:31 23° 67° (ENE) 11:00:54 145.935-145.965
PRISM 29 Mar 10:55:05 10:57:01 13° 269° (W) 10:58:57 437.425
RS-15 29 Mar 10:55:07 11:04:07 26° 100° (E) 11:13:19 29.354- 29.394
UWE-3 29 Mar 10:55:36 10:56:11 10° 299° (WNW) 10:56:45 435.000/436.395/437.385
UNISAT 6 29 Mar 11:02:05 11:05:59 26° 265° (W) 11:09:52 437.425
Oscar 11 29 Mar 11:14:40 11:16:50 14° 297° (WNW) 11:19:01 .
HO-68 29 Mar 11:16:08 11:16:51 10° 313° (NW) 11:17:34 435.675
NO-84 29 Mar 11:21:42 11:23:04 12° 22° (NNE) 11:24:29 435.350 FM
POLYITAN 1 29 Mar 11:22:23 11:26:29 46° 72° (ENE) 11:30:36 437.675
QB50P2 29 Mar 11:27:04 11:31:15 56° 74° (ENE) 11:35:28 145.880/145.840
DELFI C3 29 Mar 11:33:10 11:36:16 22° 292° (WNW) 11:39:22 145.870
DUCHIFAT 1 29 Mar 11:34:27 11:38:35 51° 73° (ENE) 11:42:43 145.980
BUGSAT 1 29 Mar 11:39:04 11:42:11 20° 66° (ENE) 11:45:19 437.445
AIST 2D 29 Mar 11:50:03 11:53:23 41° 261° (W) 11:56:46 435.315
SPROUT 29 Mar 12:09:01 12:11:17 14° 91° (E) 12:13:32 437.525
LO-87 29 Mar 12:10:31 12:14:08 60° 285° (WNW) 12:17:42 145.935 - 145.965
FO-29 29 Mar 12:16:39 12:21:51 19° 270° (W) 12:26:52 435.910
NANOSAT C BR1 29 Mar 12:22:24 12:26:26 40° 261° (W) 12:30:29 145.865
Oscar 19 29 Mar 12:23:47 12:27:43 23° 64° (ENE) 12:31:39 437.125/150
ESTCUBE 1 29 Mar 12:24:08 12:28:40 81° 101° (E) 12:33:12 437.505/2401.250
EO-79 29 Mar 12:29:17 12:33:06 32° 263° (W) 12:36:57 145.935-145.965
50 SAT 29 Mar 12:50:29 12:53:28 25° 97° (E) 12:56:27 437.505
DX 1 29 Mar 12:50:30 12:53:35 18° 93° (E) 12:56:38 434.975-435.025
NO-84 29 Mar 12:57:59 13:01:04 66° 40° (NE) 13:04:24 435.350 FM
POLYITAN 1 29 Mar 12:59:53 13:02:30 16° 268° (W) 13:05:06 437.675
Gurwin Techsat 1B 29 Mar 13:02:41 13:07:16 30° 66° (ENE) 13:11:52 435.225
RS-15 29 Mar 13:02:57 13:15:00 88° 302° (WNW) 13:27:29 29.354- 29.394
QB50P2 29 Mar 13:05:26 13:07:23 13° 269° (W) 13:09:20 145.880/145.840
DUCHIFAT 1 29 Mar 13:12:20 13:14:32 14° 269° (W) 13:16:45 145.980
BUGSAT 1 29 Mar 13:13:23 13:17:17 36° 262° (W) 13:21:14 437.445
VELOX 1 29 Mar 13:22:55 13:27:24 79° 285° (WNW) 13:31:51 145.980
UKube-1 29 Mar 13:23:33 13:27:21 29° 97° (E) 13:31:07 .
SPROUT 29 Mar 13:43:19 13:47:30 51° 287° (WNW) 13:51:36 437.525
AO-7 29 Mar 13:54:54 14:01:35 28° 55° (NE) 14:08:14 .
Oscar 19 29 Mar 14:01:50 14:06:43 45° 261° (W) 14:11:39 437.125/150
ESTCUBE 1 29 Mar 14:03:31 14:04:48 11° 300° (WNW) 14:06:07 437.505/2401.250
ITAMSAT 1 29 Mar 14:17:21 14:21:35 26° 65° (ENE) 14:25:50 435.822/435.867
50 SAT 29 Mar 14:23:50 14:26:20 19° 292° (WNW) 14:28:50 437.505
SO-50 29 Mar 14:25:00 14:29:40 82° 121° (ESE) 14:34:16 436.795
DX 1 29 Mar 14:25:48 14:29:56 40° 289° (WNW) 14:34:02 434.975-435.025
NO-84 29 Mar 14:37:03 14:38:18 12° 233° (SW) 14:39:35 435.350 FM
Gurwin Techsat 1B 29 Mar 14:42:15 14:47:06 35° 263° (W) 14:51:58 435.225
BEESAT 29 Mar 14:43:08 14:46:09 17° 92° (E) 14:49:08 436.000
UKube-1 29 Mar 14:59:41 15:03:16 26° 293° (WNW) 15:06:50 .
ITUPSAT 1 29 Mar 15:00:54 15:04:47 24° 95° (E) 15:08:38 437.325
RS-15 29 Mar 15:18:38 15:29:27 35° 329° (NNW) 15:40:27 29.354- 29.394
O/OREOS (USA 219) 29 Mar 15:19:46 15:21:26 12° 97° (E) 15:23:07 437.305
AO-7 29 Mar 15:45:19 15:53:38 73° 254° (WSW) 16:01:58 .
ITAMSAT 1 29 Mar 15:55:53 16:00:49 41° 261° (W) 16:05:46 435.822/435.867
MOZHAYETS 4 29 Mar 16:07:12 16:11:40 52° 100° (E) 16:16:06
SO-50 29 Mar 16:07:48 16:10:42 16° 321° (NW) 16:13:34 436.795
PCSat 29 Mar 16:12:37 16:13:13 10° 33° (NNE) 16:13:51 145.827
BEESAT 29 Mar 16:19:36 16:24:14 52° 288° (WNW) 16:28:49 436.000
CUTE-I 29 Mar 16:34:33 16:35:30 10° 56° (NE) 16:36:26 437.470
ITUPSAT 1 29 Mar 16:38:20 16:42:40 35° 291° (WNW) 16:46:58 437.325
YUBILEINY 29 Mar 16:53:12 16:58:12 16° 59° (ENE) 17:03:11 435.215
O/OREOS (USA 219) 29 Mar 16:55:42 17:00:12 66° 294° (WNW) 17:04:46 437.305
KKS-1 29 Mar 17:01:04 17:05:18 39° 98° (E) 17:09:29 437.445
CUBESAT XI-V 29 Mar 17:08:22 17:12:43 38° 98° (E) 17:17:04 437.345
KAITUO 1B 29 Mar 17:11:34 17:13:09 12° 65° (ENE) 17:14:43 145.475/437.950
XW-2D 29 Mar 17:11:45 17:14:06 16° 67° (ENE) 17:16:29 145.860 - 145.880
XW-2B 29 Mar 17:17:29 17:20:06 18° 67° (ENE) 17:22:43 145.730 - 145.750
DOVE 4 29 Mar 17:19:51 17:24:07 33° 68° (ENE) 17:28:39 437.250
XW-2C 29 Mar 17:27:19 17:30:23 23° 69° (ENE) 17:33:26 145.795 - 145.815
STARS 29 Mar 17:27:54 17:31:55 33° 97° (E) 17:35:53 437.465
RS-15 29 Mar 17:37:46 17:47:12 24° 4° (N) 17:56:33 29.354- 29.394
AO-7 29 Mar 17:44:16 17:47:44 13° 273° (W) 17:51:13 .
MOZHAYETS 4 29 Mar 17:45:32 17:48:24 17° 296° (WNW) 17:51:15
PCSat 29 Mar 17:52:47 17:58:02 47° 54° (NE) 18:03:15 145.827
HO-68 29 Mar 18:06:22 18:11:55 25° 58° (ENE) 18:17:29 435.675
CUTE-I 29 Mar 18:09:13 18:14:34 73° 74° (ENE) 18:19:57 437.470
XW-2F 29 Mar 18:15:58 18:19:45 89° 259° (W) 18:23:32 145.980 - 146.000
M-CUBED/EXP-1 PRIME 29 Mar 18:17:24 18:19:31 13° 95° (E) 18:21:40 437.505
LilacSat-2 29 Mar 18:23:36 18:27:24 65° 259° (W) 18:31:12 437.200
NUDT-PHONESAT 29 Mar 18:31:15 18:34:58 69° 260° (W) 18:38:42 437.300
KKS-1 29 Mar 18:38:15 18:41:35 21° 295° (WNW) 18:44:54 437.445
ISS 29 Mar 18:42:36 18:44:06 13° 130° (SE) 18:45:36 437.550
KAITUO 1B 29 Mar 18:43:08 18:46:45 47° 261° (W) 18:50:22 145.475/437.950
XW-2D 29 Mar 18:44:30 18:48:01 36° 262° (W) 18:51:32 145.860 - 145.880
CUBESAT XI-V 29 Mar 18:46:15 18:49:51 23° 294° (WNW) 18:53:27 437.345
SEEDS 29 Mar 18:47:25 18:50:05 17° 66° (ENE) 18:52:47 437.485
YUBILEINY 29 Mar 18:47:51 18:56:36 78° 81° (E) 19:05:20 435.215
XW-2B 29 Mar 18:50:40 18:54:05 31° 263° (W) 18:57:30 145.730 - 145.750
DOVE 4 29 Mar 18:57:45 19:01:48 28° 267° (W) 19:06:06 437.250
CUTE 1.7 + AOD 2 29 Mar 18:59:37 19:03:24 34° 71° (ENE) 19:07:12 437.475
XW-2C 29 Mar 19:01:23 19:04:29 23° 265° (W) 19:07:35 145.795 - 145.815
STARS 29 Mar 19:04:35 19:08:04 23° 294° (WNW) 19:11:33 437.465
CUBEBUG 2 29 Mar 19:17:50 19:21:53 28° 68° (ENE) 19:25:53 437.445
XW-2A 29 Mar 19:22:03 19:25:30 81° 76° (ENE) 19:28:57 145.665 - 145.685
STRAND 1 29 Mar 19:23:21 19:27:21 23° 94° (E) 19:31:19 437.568
PCSat 29 Mar 19:36:45 19:41:08 25° 252° (WSW) 19:45:30 145.827
AO-73 29 Mar 19:37:46 19:40:19 15° 64° (ENE) 19:42:52 145.935
M-CUBED/EXP-1 PRIME 29 Mar 19:49:42 19:54:22 71° 290° (WNW) 19:58:59 437.505
HO-68 29 Mar 19:51:57 19:59:02 68° 257° (WSW) 20:06:11 435.675
CUTE-I 29 Mar 19:52:17 19:55:09 14° 270° (W) 19:58:01 437.470
RS-15 29 Mar 19:52:50 20:04:22 42° 38° (NE) 20:15:29 29.354- 29.394
AAUSAT CUBESAT 2 29 Mar 19:55:22 19:59:15 44° 73° (ENE) 20:03:11 437.432
Tancredo 1 29 Mar 20:00:56 20:04:04 89° 165° (SSE) 20:07:15 437.200
AO-85 29 Mar 20:06:41 20:10:59 51° 119° (ESE) 20:15:02 145.980
UWE-3 29 Mar 20:12:26 20:17:02 64° 75° (ENE) 20:21:34 435.000/436.395/437.385
ISS 29 Mar 20:16:54 20:20:09 74° 326° (NW) 20:23:25 437.550
SEEDS 29 Mar 20:21:30 20:25:27 42° 262° (W) 20:29:25 437.485
Oscar 11 29 Mar 20:31:41 20:35:46 44° 72° (ENE) 20:39:53 .
CUTE 1.7 + AOD 2 29 Mar 20:36:13 20:39:19 20° 267° (W) 20:42:25 437.475
DELFI C3 29 Mar 20:44:33 20:47:10 18° 66° (ENE) 20:49:50 145.870
ZACube-1 29 Mar 20:45:15 20:49:47 83° 79° (E) 20:54:15 437.345
YUBILEINY 29 Mar 20:46:15 20:52:22 22° 281° (W) 20:58:31 435.215
CUBEBUG 2 29 Mar 20:54:11 20:58:23 31° 264° (W) 21:02:33 437.445
STRAND 1 29 Mar 21:01:52 21:06:42 43° 290° (WNW) 21:11:28 437.568
AO-73 29 Mar 21:11:40 21:16:07 56° 260° (W) 21:20:29 145.935
SO-50 29 Mar 21:17:17 21:19:24 13° 36° (NE) 21:21:31 436.795
AAUSAT CUBESAT 2 29 Mar 21:32:40 21:34:57 14° 269° (W) 21:37:15 437.432
Tancredo 1 29 Mar 21:38:07 21:40:32 20° 343° (NNW) 21:42:59 437.200
HO-68 29 Mar 21:47:18 21:48:00 10° 275° (W) 21:48:43 435.675
AO-85 29 Mar 21:48:30 21:51:37 19° 315° (NW) 21:54:36 145.980
UWE-3 29 Mar 21:51:42 21:53:52 13° 270° (W) 21:56:00 435.000/436.395/437.385
ISS 29 Mar 21:54:37 21:57:04 19° 345° (NNW) 21:59:31 437.550
BEESAT 3 29 Mar 21:58:25 22:02:19 84° 122° (ESE) 22:06:19 437.485
RS-15 29 Mar 22:05:42 22:17:52 72° 244° (WSW) 22:29:29 29.354- 29.394
Oscar 11 29 Mar 22:09:26 22:12:07 16° 268° (W) 22:14:49 .
DELFI C3 29 Mar 22:18:06 22:21:42 35° 263° (W) 22:25:20 145.870
BEESAT 2 29 Mar 22:22:10 22:26:02 58° 119° (ESE) 22:29:59 435.950
PRISM 29 Mar 22:33:22 22:37:34 81° 105° (ESE) 22:41:44 437.425
TIGRISAT 29 Mar 22:41:27 22:45:40 45° 99° (E) 22:49:46 435.000
LO-87 29 Mar 22:46:30 22:50:00 51° 74° (ENE) 22:53:33 145.935 - 145.965
